Dades meteomassalio
Diari Summary for Abril 23, 2017 Units:  Metric    English   Both
« Previous Day
Next Day »
Diari Semanal Mensual Anual Personalitzat
  Maxima: Minima: Mijana:
Temperatura: -17.8 °C -16.2 °C -9.9 °C
Rosada: -17.8 °C -18.2 °C -16.2 °C
Humitat: Humidity % 19 % 51 %
Velocitat del vent: 0 km/h 0 km/h 5.5 km/h
Racha vent: 0 km/h - -
Vent:- - East
Pressio: 0 hPa 34371.3 hPa -
Pluja: 0 mm    
Historical Graphs
 
 
Tabular Data for Abril 23, 2017
Time Temperature Dew Point Pressure Wind Wind Speed Wind Gust Humidity Rainfall Rate (Hourly) solar Conditions
-17.8 °C -17.8 °C 0 hPa Calm     Humidity % 0 mm SolarRadiationWatts/m^2 W/m2 Conditions
00:01 -11.9 °C -15.2 °C 34567.7 hPa Calm     67 % 0 mm 0.0 W/m2 CLR
00:06 -12.1 °C -15.2 °C 34567.7 hPa Calm     68 % 0 mm 0.0 W/m2 CLR
00:11 -12.2 °C -15.2 °C 34567.7 hPa Calm     69 % 0 mm 0.0 W/m2 CLR
00:16 -12.3 °C -15.4 °C 34567.7 hPa Calm     69 % 0 mm 0.0 W/m2 CLR
00:21 -12.4 °C -15.4 °C 34567.7 hPa Calm     70 % 0 mm 0.0 W/m2 CLR
00:26 -12.6 °C -15.5 °C 34567.7 hPa Calm     70 % 0 mm 0.0 W/m2 CLR
00:31 -12.7 °C -15.5 °C 34567.7 hPa Calm     71 % 0 mm 0.0 W/m2 CLR
00:36 -12.8 °C -15.5 °C 34567.7 hPa Calm     72 % 0 mm 0.0 W/m2 CLR
00:41 -12.9 °C -15.6 °C 34567.7 hPa Calm     72 % 0 mm 0.0 W/m2 CLR
00:46 -13.1 °C -15.6 °C 34567.7 hPa Calm     73 % 0 mm 0.0 W/m2 CLR
00:51 -13.2 °C -15.7 °C 34567.7 hPa Calm     73 % 0 mm 0.0 W/m2 CLR
00:56 -13.2 °C -15.8 °C 34567.7 hPa Calm     73 % 0 mm 0.0 W/m2 CLR
01:01 -13.3 °C -15.7 °C 34567.7 hPa Calm     74 % 0 mm 0.0 W/m2 CLR
01:06 -13.4 °C -15.8 °C 34567.7 hPa Calm     74 % 0 mm 0.0 W/m2 CLR
01:11 -13.6 °C -15.9 °C 34554.1 hPa Calm     75 % 0 mm 0.0 W/m2 CLR
01:16 -13.7 °C -15.8 °C 34554.1 hPa Calm     76 % 0 mm 0.0 W/m2 CLR
01:21 -13.7 °C -15.9 °C 34554.1 hPa Calm     76 % 0 mm 0.0 W/m2 CLR
01:26 -13.7 °C -15.9 °C 34567.7 hPa Calm     76 % 0 mm 0.0 W/m2 CLR
01:31 -13.7 °C -15.8 °C 34554.1 hPa Calm     77 % 0 mm 0.0 W/m2 CLR
01:36 -13.8 °C -15.9 °C 34554.1 hPa Calm     77 % 0 mm 0.0 W/m2 CLR
01:42 -13.8 °C -15.9 °C 34554.1 hPa Calm     77 % 0 mm 0.0 W/m2 CLR
01:47 -13.9 °C -16 °C 34554.1 hPa Calm     77 % 0 mm 0.0 W/m2 CLR
01:52 -14.1 °C -16.2 °C 34554.1 hPa Calm     77 % 0 mm 0.0 W/m2 CLR
01:57 -14.1 °C -16.2 °C 34554.1 hPa Calm     77 % 0 mm 0.0 W/m2 CLR
02:02 -14.2 °C -16.2 °C 34554.1 hPa Calm     78 % 0 mm 0.0 W/m2 CLR
02:07 -14.3 °C -16.2 °C 34554.1 hPa Calm     79 % 0 mm 0.0 W/m2 CLR
02:12 -14.3 °C -16.2 °C 34554.1 hPa Calm     78 % 0 mm 0.0 W/m2 CLR
02:17 -14.3 °C -16.3 °C 34554.1 hPa Calm     78 % 0 mm 0.0 W/m2 CLR
02:22 -14.3 °C -16.3 °C 34554.1 hPa Calm     78 % 0 mm 0.0 W/m2 CLR
02:27 -14.4 °C -16.3 °C 34554.1 hPa Calm     78 % 0 mm 0.0 W/m2 CLR
02:32 -14.4 °C -16.4 °C 34554.1 hPa Calm     78 % 0 mm 0.0 W/m2 CLR
02:37 -14.6 °C -16.5 °C 34554.1 hPa Calm     78 % 0 mm 0.0 W/m2 CLR
02:42 -14.6 °C -16.5 °C 34554.1 hPa Calm     79 % 0 mm 0.0 W/m2 CLR
02:47 -14.7 °C -16.7 °C 34554.1 hPa Calm     78 % 0 mm 0.0 W/m2 CLR
02:52 -14.8 °C -16.6 °C 34554.1 hPa Calm     79 % 0 mm 0.0 W/m2 CLR
02:57 -14.8 °C -16.7 °C 34554.1 hPa Calm     79 % 0 mm 0.0 W/m2 CLR
03:02 -14.8 °C -16.7 °C 34554.1 hPa Calm     79 % 0 mm 0.0 W/m2 CLR
03:07 -14.9 °C -16.8 °C 34544 hPa Calm     79 % 0 mm 0.0 W/m2 CLR
03:12 -14.9 °C -16.7 °C 34544 hPa Calm     80 % 0 mm 0.0 W/m2 CLR
03:17 -15.1 °C -16.8 °C 34544 hPa Calm     80 % 0 mm 0.0 W/m2 CLR
03:22 -15.1 °C -16.9 °C 34544 hPa Calm     79 % 0 mm 0.0 W/m2 CLR
03:27 -15.1 °C -17 °C 34544 hPa Calm     79 % 0 mm 0.0 W/m2 CLR
03:32 -15.1 °C -17 °C 34544 hPa Calm     79 % 0 mm 0.0 W/m2 CLR
03:37 -15.2 °C -17 °C 34544 hPa Calm     79 % 0 mm 0.0 W/m2 CLR
03:42 -15.2 °C -17.1 °C 34544 hPa Calm     79 % 0 mm 0.0 W/m2 CLR
03:47 -15.3 °C -17.2 °C 34544 hPa Calm     79 % 0 mm 0.0 W/m2 CLR
03:52 -15.4 °C -17.3 °C 34544 hPa Calm     78 % 0 mm 0.0 W/m2 CLR
03:57 -15.4 °C -17.4 °C 34544 hPa Calm     78 % 0 mm 0.0 W/m2 CLR
04:02 -15.4 °C -17.4 °C 34544 hPa Calm     77 % 0 mm 0.0 W/m2 CLR
04:07 -15.4 °C -17.4 °C 34544 hPa Calm     77 % 0 mm 0.0 W/m2 CLR
04:12 -15.4 °C -17.5 °C 34533.8 hPa Calm     77 % 0 mm 0.0 W/m2 CLR
04:17 -15.4 °C -17.5 °C 34544 hPa Calm     77 % 0 mm 0.0 W/m2 CLR
04:22 -15.6 °C -17.6 °C 34544 hPa Calm     77 % 0 mm 0.0 W/m2 CLR
04:27 -15.7 °C -17.7 °C 34544 hPa Calm     77 % 0 mm 0.0 W/m2 CLR
04:32 -15.7 °C -17.7 °C 34544 hPa Calm     77 % 0 mm 0.0 W/m2 CLR
04:37 -15.7 °C -17.6 °C 34544 hPa Calm     78 % 0 mm 0.0 W/m2 CLR
04:42 -15.7 °C -17.7 °C 34533.8 hPa Calm     77 % 0 mm 0.0 W/m2 CLR
04:47 -15.7 °C -17.8 °C 34533.8 hPa Calm     76 % 0 mm 0.0 W/m2 CLR
04:52 -15.7 °C -17.9 °C 34533.8 hPa Calm     76 % 0 mm 0.0 W/m2 CLR
04:57 -15.8 °C -17.8 °C 34544 hPa Calm     77 % 0 mm 0.0 W/m2 CLR
04:59 -15.8 °C -17.9 °C 34544 hPa Calm     76 % 0 mm 0.0 W/m2 CLR
05:04 -15.8 °C -18 °C 34544 hPa Calm     75 % 0 mm 0.0 W/m2 CLR
05:09 -15.8 °C -18 °C 34544 hPa Calm     75 % 0 mm 0.0 W/m2 CLR
05:14 -15.8 °C -17.9 °C 34544 hPa Calm     76 % 0 mm 0.0 W/m2 CLR
05:19 -15.9 °C -17.9 °C 34533.8 hPa Calm     77 % 0 mm 0.0 W/m2 CLR
05:24 -15.9 °C -18.1 °C 34544 hPa Calm     76 % 0 mm 0.0 W/m2 CLR
05:29 -15.9 °C -18.1 °C 34533.8 hPa Calm     75 % 0 mm 0.0 W/m2 CLR
05:34 -15.9 °C -18.1 °C 34533.8 hPa Calm     75 % 0 mm 0.0 W/m2 CLR
05:39 -15.8 °C -18.1 °C 34544 hPa Calm     75 % 0 mm 0.0 W/m2 CLR
05:44 -15.9 °C -18.1 °C 34544 hPa Calm     75 % 0 mm 0.0 W/m2 CLR
05:49 -15.9 °C -18.1 °C 34544 hPa Calm     76 % 0 mm 0.0 W/m2 CLR
05:54 -16.1 °C -18.2 °C 34544 hPa Calm     76 % 0 mm 0.0 W/m2 CLR
05:59 -16.1 °C -18.1 °C 34544 hPa Calm     77 % 0 mm 0.0 W/m2 CLR
06:04 -16.1 °C -18.1 °C 34533.8 hPa Calm     77 % 0 mm 0.0 W/m2 CLR
06:09 -16.1 °C -18.2 °C 34533.8 hPa Calm     77 % 0 mm 0.0 W/m2 CLR
06:14 -16.1 °C -18.2 °C 34544 hPa Calm     77 % 0 mm 0.0 W/m2 CLR
06:19 -16.1 °C -18.2 °C 34544 hPa Calm     77 % 0 mm 0.0 W/m2 CLR
06:24 -16.1 °C -18.2 °C 34544 hPa Calm     76 % 0 mm 0.0 W/m2 CLR
06:29 -16.1 °C -18.2 °C 34533.8 hPa Calm     76 % 0 mm 0.0 W/m2 CLR
06:34 -16.2 °C -18.2 °C 34533.8 hPa Calm     77 % 0 mm 0.0 W/m2 CLR
06:39 -16.2 °C -18.2 °C 34533.8 hPa Calm     77 % 0 mm 0.0 W/m2 CLR
06:44 -16.2 °C -18.2 °C 34544 hPa Calm     77 % 0 mm 0.0 W/m2 CLR
06:49 -16.1 °C -18.2 °C 34544 hPa Calm     77 % 0 mm 0.0 W/m2 CLR
06:54 -16.2 °C -18.2 °C 34544 hPa Calm     77 % 0 mm 0.0 W/m2 CLR
06:59 -16.2 °C -18.2 °C 34544 hPa Calm     77 % 0 mm 0.0 W/m2 CLR
07:04 -16.2 °C -18.2 °C 34544 hPa Calm     77 % 0 mm 0.0 W/m2 OVC
07:09 -16.2 °C -18.2 °C 34544 hPa Calm     77 % 0 mm 5.0 W/m2 OVC
07:14 -16.2 °C -18.1 °C 34544 hPa Calm     78 % 0 mm 9.0 W/m2 BKN
07:19 -16.2 °C -18.1 °C 34544 hPa Calm     78 % 0 mm 12.0 W/m2 BKN
07:24 -16.2 °C -18.1 °C 34554.1 hPa Calm     78 % 0 mm 18.0 W/m2 BKN
07:29 -16.1 °C -18 °C 34544 hPa Calm     78 % 0 mm 23.0 W/m2 BKN
07:34 -16 °C -17.9 °C 34544 hPa Calm     78 % 0 mm 26.0 W/m2 BKN
07:39 -16 °C -18 °C 34554.1 hPa Calm     77 % 0 mm 32.0 W/m2 BKN
07:44 -15.9 °C -17.9 °C 34554.1 hPa Calm     78 % 0 mm 37.0 W/m2 BKN
07:49 -15.9 °C -17.8 °C 34554.1 hPa Calm     78 % 0 mm 47.0 W/m2 SCT
07:54 -15.8 °C -17.8 °C 34554.1 hPa Calm     77 % 0 mm 54.0 W/m2 SCT
07:59 -15.7 °C -17.8 °C 34554.1 hPa Calm     77 % 0 mm 69.0 W/m2 SCT
08:04 -15.6 °C -17.7 °C 34554.1 hPa Calm     77 % 0 mm 98.0 W/m2 CLR
08:09 -15.4 °C -17.4 °C 34554.1 hPa Calm     77 % 0 mm 114.0 W/m2 CLR
08:14 -15.2 °C -17.3 °C 34554.1 hPa Calm     76 % 0 mm 135.0 W/m2 CLR
08:19 -14.8 °C -17.2 °C 34554.1 hPa Calm     74 % 0 mm 156.0 W/m2 CLR
08:24 -14.6 °C -17.2 °C 34554.1 hPa Calm     72 % 0 mm 176.0 W/m2 CLR
08:29 -14.3 °C -17.1 °C 34554.1 hPa Calm     71 % 0 mm 195.0 W/m2 CLR
08:34 -14.1 °C -17 °C 34554.1 hPa Calm     69 % 0 mm 220.0 W/m2 CLR
08:39 -13.9 °C -17 °C 34554.1 hPa Calm     68 % 0 mm 241.0 W/m2 CLR
08:44 -13.6 °C -16.8 °C 34554.1 hPa Calm     67 % 0 mm 239.0 W/m2 CLR
08:49 -13.3 °C -16.7 °C 34554.1 hPa Calm     65 % 0 mm 269.0 W/m2 CLR
08:54 -13 °C -16.7 °C 34544 hPa Calm     63 % 0 mm 230.0 W/m2 CLR
08:59 -12.7 °C -16.6 °C 34544 hPa Calm     61 % 0 mm 329.0 W/m2 CLR
09:04 -12.4 °C -16.8 °C 34544 hPa Calm     58 % 0 mm 345.0 W/m2 CLR
09:09 -12.1 °C -16.9 °C 34544 hPa Calm     55 % 0 mm 320.0 W/m2 CLR
09:14 -11.8 °C -16.8 °C 34544 hPa Calm     54 % 0 mm 123.0 W/m2 CLR
09:19 -11.5 °C -16.5 °C 34544 hPa Calm     54 % 0 mm 406.0 W/m2 CLR
09:24 -11.2 °C -16.5 °C 34544 hPa Calm     52 % 0 mm 427.0 W/m2 CLR
09:29 -10.9 °C -16.6 °C 34533.8 hPa Calm     50 % 0 mm 448.0 W/m2 CLR
09:34 -10.8 °C -16.6 °C 34533.8 hPa Calm     49 % 0 mm 469.0 W/m2 CLR
09:39 -10.6 °C -16.4 °C 34533.8 hPa Calm     49 % 0 mm 489.0 W/m2 CLR
09:44 -10.3 °C -16.3 °C 34533.8 hPa Calm     48 % 0 mm 510.0 W/m2 CLR
09:49 -10.1 °C -16 °C 34533.8 hPa Calm     49 % 0 mm 519.0 W/m2 CLR
09:54 -9.9 °C -15.8 °C 34533.8 hPa Calm     49 % 0 mm 524.0 W/m2 CLR
09:59 -9.8 °C -15.4 °C 34533.8 hPa Calm     50 % 0 mm 536.0 W/m2 CLR
10:04 -9.4 °C -15.2 °C 34533.8 hPa Calm     50 % 0 mm 557.0 W/m2 CLR
10:10 -9.1 °C -15 °C 34520.3 hPa Calm     49 % 0 mm 568.0 W/m2 CLR
10:15 -8.9 °C -14.8 °C 34520.3 hPa Calm     49 % 0 mm 568.0 W/m2 CLR
10:20 -8.8 °C -14.7 °C 34533.8 hPa ENE 9 km/h 9 km/h 49 % 0 mm 557.0 W/m2 CLR
10:25 -8.8 °C -14.4 °C 34520.3 hPa ENE 17.9 km/h 17.9 km/h 51 % 0 mm 566.0 W/m2 CLR
10:30 -8.7 °C -14.3 °C 34520.3 hPa ENE 15 km/h 15 km/h 51 % 0 mm 570.0 W/m2 CLR
10:35 -8.7 °C -14.2 °C 34520.3 hPa NE 18.2 km/h 18.2 km/h 52 % 0 mm 557.0 W/m2 CLR
10:40 -8.7 °C -14 °C 34520.3 hPa ENE 12.9 km/h 12.9 km/h 53 % 0 mm 570.0 W/m2 CLR
10:45 -8.6 °C -13.9 °C 34520.3 hPa ENE 15 km/h 15 km/h 53 % 0 mm 603.0 W/m2 CLR
10:50 -8.7 °C -13.8 °C 34520.3 hPa NE 11.9 km/h 11.9 km/h 54 % 0 mm 608.0 W/m2 CLR
10:55 -8.6 °C -13.8 °C 34520.3 hPa ENE 15 km/h 15 km/h 54 % 0 mm 622.0 W/m2 CLR
11:00 -8.4 °C -13.8 °C 34520.3 hPa Calm     53 % 0 mm 631.0 W/m2 CLR
11:05 -8.2 °C -13.6 °C 34520.3 hPa ENE 6 km/h 6 km/h 53 % 0 mm 608.0 W/m2 CLR
11:10 -8.2 °C -13.8 °C 34520.3 hPa ENE 9 km/h 9 km/h 51 % 0 mm 575.0 W/m2 CLR
11:15 -8.1 °C -13.8 °C 34520.3 hPa ENE 6 km/h 6.8 km/h 51 % 0 mm 577.0 W/m2 CLR
11:20 -8.1 °C -13.8 °C 34520.3 hPa NE 15 km/h 15 km/h 51 % 0 mm 594.0 W/m2 CLR
11:25 -8 °C -13.7 °C 34520.3 hPa Calm     51 % 0 mm 613.0 W/m2 CLR
11:30 -7.9 °C -13.8 °C 34510.1 hPa Calm     50 % 0 mm 645.0 W/m2 CLR
11:35 -7.8 °C -13.8 °C 34510.1 hPa Calm     49 % 0 mm 652.0 W/m2 CLR
11:40 -7.6 °C -13.8 °C 34510.1 hPa Calm     48 % 0 mm 661.0 W/m2 CLR
11:45 -7.5 °C -13.7 °C 34510.1 hPa Calm     48 % 0 mm 689.0 W/m2 CLR
11:50 -7.3 °C -13.7 °C 34510.1 hPa Calm     47 % 0 mm 673.0 W/m2 CLR
11:55 -7.1 °C -13.7 °C 34510.1 hPa Calm     46 % 0 mm 691.0 W/m2 CLR
11:56 -7.1 °C -13.9 °C 34510.1 hPa Calm     45 % 0 mm 687.0 W/m2 CLR
12:01 -7.1 °C -13.9 °C 34510.1 hPa ENE 9 km/h 9 km/h 45 % 0 mm 689.0 W/m2 CLR
12:05 -7.1 °C -13.7 °C 34510.1 hPa ENE 9 km/h 9 km/h 46 % 0 mm 691.0 W/m2 CLR
12:11 -7 °C -13.7 °C 34496.6 hPa ENE 11.9 km/h 11.9 km/h 46 % 0 mm 717.0 W/m2 CLR
12:16 -6.9 °C -13.9 °C 34496.6 hPa East 11.9 km/h 11.9 km/h 44 % 0 mm 721.0 W/m2 CLR
12:21 -6.9 °C -13.7 °C 34496.6 hPa ENE 11.9 km/h 11.9 km/h 45 % 0 mm 737.0 W/m2 CLR
12:26 -6.9 °C -13.9 °C 34496.6 hPa East 9 km/h 9 km/h 44 % 0 mm 677.0 W/m2 CLR
12:31 -6.9 °C -13.9 °C 34496.6 hPa ENE 11.9 km/h 11.9 km/h 44 % 0 mm 698.0 W/m2 CLR
12:36 -6.8 °C -13.9 °C 34496.6 hPa East 9 km/h 9 km/h 43 % 0 mm 772.0 W/m2 CLR
12:41 -6.7 °C -14.3 °C 34496.6 hPa ENE 10.3 km/h 10.3 km/h 41 % 0 mm 796.0 W/m2 CLR
12:46 -6.6 °C -14.2 °C 34496.6 hPa ENE 6 km/h   41 % 0 mm 784.0 W/m2 CLR
12:51 -6.6 °C -14.6 °C 34496.6 hPa Calm     39 % 0 mm 782.0 W/m2 CLR
12:56 -6.4 °C -14.7 °C 34486.4 hPa Calm     38 % 0 mm 773.0 W/m2 CLR
13:01 -6.2 °C -14.8 °C 34486.4 hPa Calm     36 % 0 mm 779.0 W/m2 CLR
13:06 -5.9 °C -15.1 °C 34486.4 hPa Calm     34 % 0 mm 791.0 W/m2 CLR
13:11 -5.8 °C -14.9 °C 34486.4 hPa Calm     34 % 0 mm 784.0 W/m2 CLR
13:16 -5.6 °C -14.6 °C 34486.4 hPa NE 23.8 km/h 23.8 km/h 35 % 0 mm 789.0 W/m2 CLR
13:21 -5.5 °C -14.7 °C 34486.4 hPa NE 11.9 km/h 11.9 km/h 34 % 0 mm 805.0 W/m2 CLR
13:26 -5.6 °C -14.3 °C 34476.3 hPa NE 12.9 km/h 12.9 km/h 36 % 0 mm 807.0 W/m2 CLR
13:31 -5.4 °C -14 °C 34476.3 hPa NNE 11.9 km/h 11.9 km/h 37 % 0 mm 793.0 W/m2 CLR
13:36 -5.6 °C -14.1 °C 34476.3 hPa NE 15 km/h 15 km/h 37 % 0 mm 780.0 W/m2 CLR
13:41 -5.6 °C -14.1 °C 34476.3 hPa ENE 11.9 km/h 11.9 km/h 37 % 0 mm 747.0 W/m2 CLR
13:46 -5.5 °C -14.5 °C 34462.7 hPa Calm     35 % 0 mm 768.0 W/m2 CLR
13:51 -5.4 °C -14.4 °C 34462.7 hPa NNE 15 km/h 15 km/h 35 % 0 mm 793.0 W/m2 CLR
13:56 -5.3 °C -14.6 °C 34462.7 hPa ENE 7.7 km/h 7.7 km/h 34 % 0 mm 777.0 W/m2 CLR
14:01 -5.1 °C -14.9 °C 34462.7 hPa NNE 20.8 km/h 20.8 km/h 32 % 0 mm 686.0 W/m2 CLR
14:06 -5.1 °C -14.8 °C 34452.6 hPa NNE 15 km/h 15 km/h 32 % 0 mm 642.0 W/m2 CLR
14:11 -5.2 °C -14.9 °C 34452.6 hPa NE 11.9 km/h 11.9 km/h 32 % 0 mm 656.0 W/m2 CLR
14:16 -5.2 °C -14.9 °C 34452.6 hPa East 9 km/h   32 % 0 mm 703.0 W/m2 CLR
14:21 -5.1 °C -15.4 °C 34452.6 hPa East 5.1 km/h 5.1 km/h 30 % 0 mm 715.0 W/m2 CLR
14:26 -4.9 °C -15.5 °C 34452.6 hPa East 2.6 km/h 2.6 km/h 29 % 0 mm 740.0 W/m2 CLR
14:31 -4.8 °C -16.3 °C 34452.6 hPa NE 9 km/h 9 km/h 26 % 0 mm 745.0 W/m2 CLR
14:36 -4.7 °C -15.9 °C 34452.6 hPa ENE 15 km/h 15 km/h 27 % 0 mm 751.0 W/m2 CLR
14:41 -4.8 °C -15.9 °C 34442.4 hPa East 3.1 km/h   27 % 0 mm 733.0 W/m2 CLR
14:46 -4.8 °C -15.9 °C 34442.4 hPa Calm     27 % 0 mm 657.0 W/m2 CLR
14:51 -4.8 °C -15.9 °C 34442.4 hPa Calm     27 % 0 mm 679.0 W/m2 CLR
14:56 -4.6 °C -15.8 °C 34442.4 hPa NNE 15 km/h 15 km/h 27 % 0 mm 738.0 W/m2 CLR
15:01 -4.4 °C -15.9 °C 34428.8 hPa East 3.1 km/h   26 % 0 mm 793.0 W/m2 CLR
15:06 -4.3 °C -15.6 °C 34428.8 hPa East 9 km/h 9 km/h 27 % 0 mm 803.0 W/m2 CLR
15:11 -4.4 °C -15.9 °C 34428.8 hPa ESE 11.9 km/h 11.9 km/h 26 % 0 mm 853.0 W/m2 CLR
15:16 -4.4 °C -15.7 °C 34428.8 hPa ENE 18.2 km/h 18.2 km/h 27 % 0 mm 865.0 W/m2 CLR
15:21 -4.2 °C -16.1 °C 34418.7 hPa Calm     25 % 0 mm 863.0 W/m2 CLR
15:26 -4.1 °C -16.3 °C 34418.7 hPa NNE 9 km/h 9 km/h 24 % 0 mm 870.0 W/m2 CLR
15:31 -4 °C -16.8 °C 34418.7 hPa ESE 20.9 km/h 20.9 km/h 22 % 0 mm 789.0 W/m2 CLR
15:36 -4.1 °C -17.7 °C 34418.7 hPa SE 15.6 km/h 15.6 km/h 20 % 0 mm 763.0 W/m2 CLR
15:41 -4.1 °C -17.7 °C 34418.7 hPa East 15.6 km/h 15.6 km/h 20 % 0 mm 735.0 W/m2 CLR
15:46 -4.2 °C -17.8 °C 34405.1 hPa East 20.9 km/h 20.9 km/h 20 % 0 mm 738.0 W/m2 CLR
15:51 -4.3 °C -17.4 °C 34405.1 hPa ENE 6 km/h   21 % 0 mm 698.0 W/m2 CLR
15:56 -4.1 °C -17.7 °C 34405.1 hPa East 15 km/h 15 km/h 20 % 0 mm 756.0 W/m2 CLR
16:01 -4.1 °C -18.1 °C 34405.1 hPa East 20.9 km/h 20.9 km/h 19 % 0 mm 735.0 W/m2 CLR
16:06 -4.3 °C -18.2 °C 34405.1 hPa East 17.9 km/h 17.9 km/h 19 % 0 mm 758.0 W/m2 CLR
16:11 -4.3 °C -17.8 °C 34395 hPa Calm     20 % 0 mm 747.0 W/m2 CLR
16:16 -4.2 °C -17.7 °C 34395 hPa ENE 26.9 km/h 26.9 km/h 20 % 0 mm 719.0 W/m2 CLR
16:21 -4 °C -17.6 °C 34395 hPa ESE 15.6 km/h 15.6 km/h 20 % 0 mm 728.0 W/m2 CLR
16:26 -3.9 °C -17.9 °C 34395 hPa NE 10.3 km/h 10.3 km/h 19 % 0 mm 728.0 W/m2 CLR
16:31 -3.9 °C -17.6 °C 34395 hPa ESE 15.6 km/h 15.6 km/h 20 % 0 mm 701.0 W/m2 CLR
16:36 -4 °C -18 °C 34395 hPa East 15 km/h 15 km/h 19 % 0 mm 745.0 W/m2 CLR
16:41 -3.9 °C -17.9 °C 34395 hPa ESE 15 km/h 15 km/h 19 % 0 mm 779.0 W/m2 CLR
16:46 -4 °C -18 °C 34395 hPa ESE 18.2 km/h 18.2 km/h 19 % 0 mm 758.0 W/m2 CLR
16:51 -4.1 °C -17.7 °C 34384.8 hPa SE 29.8 km/h 29.8 km/h 20 % 0 mm 733.0 W/m2 CLR
16:52 -4.1 °C -17.7 °C 34384.8 hPa SSE 15.6 km/h 15.6 km/h 20 % 0 mm 726.0 W/m2 CLR
16:57 -3.9 °C -17.6 °C 34384.8 hPa ESE 17.9 km/h 17.9 km/h 20 % 0 mm 745.0 W/m2 CLR
17:02 -3.8 °C -17.4 °C 34384.8 hPa ESE 20.9 km/h 20.9 km/h 20 % 0 mm 742.0 W/m2 CLR
17:07 -3.9 °C -17.6 °C 34384.8 hPa ESE 29.8 km/h 29.8 km/h 20 % 0 mm 726.0 W/m2 CLR
17:12 -4 °C -17.6 °C 34384.8 hPa East 11.9 km/h 11.9 km/h 20 % 0 mm 712.0 W/m2 CLR
17:17 -3.9 °C -17.2 °C 34384.8 hPa East 15 km/h 15 km/h 21 % 0 mm 712.0 W/m2 CLR
17:22 -3.8 °C -17.1 °C 34384.8 hPa East 29.8 km/h 29.8 km/h 21 % 0 mm 703.0 W/m2 CLR
17:27 -3.9 °C -16.8 °C 34384.8 hPa ESE 29.8 km/h 29.8 km/h 22 % 0 mm 700.0 W/m2 CLR
17:32 -4.1 °C -16.6 °C 34371.3 hPa SE 35.7 km/h 35.7 km/h 23 % 0 mm 677.0 W/m2 CLR
17:37 -4.1 °C -16.6 °C 34371.3 hPa ENE 9 km/h 9 km/h 23 % 0 mm 619.0 W/m2 CLR
18:00 -4.2 °C -16.1 °C 34371.3 hPa ESE 29.8 km/h 29.8 km/h 25 % 0 mm 540.0 W/m2 OVC
18:05 -4.3 °C -15.9 °C 34371.3 hPa SE 23.8 km/h 23.8 km/h 26 % 0 mm 468.0 W/m2 CLR
18:10 -4.3 °C -15.8 °C 34371.3 hPa ESE 23.8 km/h 23.8 km/h 26 % 0 mm 446.0 W/m2 CLR
18:15 -4.4 °C -15.6 °C 34371.3 hPa East 20.9 km/h 20.9 km/h 27 % 0 mm 359.0 W/m2 CLR
18:20 -4.4 °C -15.7 °C 34371.3 hPa East 18.2 km/h 18.2 km/h 27 % 0 mm 343.0 W/m2 CLR
18:25 -4.5 °C -15.4 °C 34371.3 hPa ESE 29.8 km/h 29.8 km/h 28 % 0 mm 290.0 W/m2 CLR
18:30 -4.6 °C -15.4 °C 34371.3 hPa ESE 12.9 km/h 12.9 km/h 28 % 0 mm 230.0 W/m2 CLR
18:35 -4.6 °C -15.5 °C 34371.3 hPa ESE 20.9 km/h 20.9 km/h 28 % 0 mm 283.0 W/m2 CLR
18:40 -4.6 °C -15.5 °C 34371.3 hPa ESE 20.9 km/h 20.9 km/h 28 % 0 mm 239.0 W/m2 CLR
18:45 -4.8 °C -15.6 °C 34371.3 hPa East 17.9 km/h 17.9 km/h 28 % 0 mm 218.0 W/m2 CLR
18:50 -4.8 °C -15.4 °C 34371.3 hPa ESE 12.9 km/h 12.9 km/h 29 % 0 mm 206.0 W/m2 CLR
18:56 -4.9 °C -15.7 °C 34371.3 hPa ESE 17.9 km/h 17.9 km/h 28 % 0 mm 204.0 W/m2 CLR
19:01 -5 °C -15.8 °C 34371.3 hPa SE 15 km/h 15 km/h 28 % 0 mm 195.0 W/m2 CLR
19:06 -5.1 °C -15.9 °C 34371.3 hPa East 15 km/h 15 km/h 28 % 0 mm 163.0 W/m2 CLR
19:11 -5.2 °C -15.7 °C 34371.3 hPa East 15 km/h 15 km/h 29 % 0 mm 148.0 W/m2 CLR
19:16 -5.2 °C -16 °C 34371.3 hPa ESE 20.9 km/h 20.9 km/h 28 % 0 mm 141.0 W/m2 CLR
19:21 -5.3 °C -16.1 °C 34371.3 hPa East 15 km/h 15 km/h 28 % 0 mm 139.0 W/m2 CLR
19:26 -5.3 °C -16.1 °C 34371.3 hPa East 17.9 km/h 17.9 km/h 28 % 0 mm 165.0 W/m2 CLR
19:31 -5.4 °C -15.9 °C 34371.3 hPa ESE 12.9 km/h 12.9 km/h 29 % 0 mm 179.0 W/m2 CLR
19:36 -5.4 °C -15.9 °C 34371.3 hPa ESE 15 km/h 15 km/h 29 % 0 mm 171.0 W/m2 CLR
19:41 -5.4 °C -15.9 °C 34371.3 hPa SE 12.9 km/h 12.9 km/h 29 % 0 mm 156.0 W/m2 CLR
19:46 -5.5 °C -16.3 °C 34371.3 hPa SE 15 km/h 15 km/h 28 % 0 mm 190.0 W/m2 CLR
19:51 -5.6 °C -16.1 °C 34371.3 hPa ESE 23.8 km/h 23.8 km/h 29 % 0 mm 149.0 W/m2 CLR
19:56 -5.7 °C -16.2 °C 34371.3 hPa East 15 km/h 15 km/h 29 % 0 mm 97.0 W/m2 CLR
20:01 -5.8 °C -16 °C 34371.3 hPa SE 11.9 km/h 11.9 km/h 30 % 0 mm 81.0 W/m2 FEW
20:06 -5.9 °C -16.1 °C 34371.3 hPa ESE 12.9 km/h 12.9 km/h 30 % 0 mm 72.0 W/m2 FEW
20:11 -6 °C -15.9 °C 34371.3 hPa East 3.1 km/h   31 % 0 mm 62.0 W/m2 SCT
20:16 -6.1 °C -16 °C 34371.3 hPa ESE 10.3 km/h 10.3 km/h 31 % 0 mm 60.0 W/m2 SCT
20:21 -6.2 °C -16.1 °C 34384.8 hPa East 15 km/h 15 km/h 31 % 0 mm 53.0 W/m2 SCT
20:26 -6.2 °C -16.1 °C 34384.8 hPa ENE 11.9 km/h 11.9 km/h 31 % 0 mm 46.0 W/m2 SCT
20:31 -6.3 °C -15.9 °C 34384.8 hPa East 9 km/h 9 km/h 32 % 0 mm 37.0 W/m2 BKN
20:36 -6.4 °C -16 °C 34384.8 hPa Calm     32 % 0 mm 25.0 W/m2 BKN
20:41 -6.5 °C -16.1 °C 34384.8 hPa East 6 km/h 6 km/h 32 % 0 mm 18.0 W/m2 BKN
20:46 -6.6 °C -15.9 °C 34384.8 hPa Calm     33 % 0 mm 12.0 W/m2 BKN
20:51 -6.7 °C -16 °C 34384.8 hPa Calm     33 % 0 mm 7.0 W/m2 OVC
20:56 -6.8 °C -15.9 °C 34384.8 hPa East 7.7 km/h 7.7 km/h 34 % 0 mm 5.0 W/m2 OVC
21:01 -6.9 °C -16 °C 34384.8 hPa Calm     34 % 0 mm 0.0 W/m2 CLR
21:06 -7.1 °C -15.9 °C 34395 hPa ENE 6 km/h 6 km/h 35 % 0 mm 0.0 W/m2 CLR
21:11 -7.2 °C -16 °C 34395 hPa Calm     35 % 0 mm 0.0 W/m2 CLR
21:16 -7.3 °C -15.9 °C 34395 hPa Calm     36 % 0 mm 0.0 W/m2 CLR
21:21 -7.4 °C -16 °C 34395 hPa Calm     36 % 0 mm 0.0 W/m2 CLR
21:26 -7.6 °C -15.9 °C 34395 hPa Calm     37 % 0 mm 0.0 W/m2 CLR
21:31 -7.7 °C -15.9 °C 34395 hPa Calm     37 % 0 mm 0.0 W/m2 CLR
21:36 -7.7 °C -15.8 °C 34395 hPa Calm     38 % 0 mm 0.0 W/m2 CLR
21:41 -7.8 °C -15.9 °C 34395 hPa Calm     38 % 0 mm 0.0 W/m2 CLR
21:46 -7.9 °C -15.9 °C 34405.1 hPa Calm     38 % 0 mm 0.0 W/m2 CLR
21:51 -8 °C -15.9 °C 34405.1 hPa Calm     39 % 0 mm 0.0 W/m2 CLR
21:56 -8.2 °C -16 °C 34405.1 hPa Calm     39 % 0 mm 0.0 W/m2 CLR
22:01 -8.4 °C -16 °C 34405.1 hPa Calm     40 % 0 mm 0.0 W/m2 CLR
22:06 -8.5 °C -15.9 °C 34405.1 hPa Calm     41 % 0 mm 0.0 W/m2 CLR
22:11 -8.7 °C -16.1 °C 34418.7 hPa Calm     41 % 0 mm 0.0 W/m2 CLR
22:16 -8.8 °C -16 °C 34418.7 hPa Calm     42 % 0 mm 0.0 W/m2 CLR
22:21 -8.9 °C -16.1 °C 34418.7 hPa Calm     42 % 0 mm 0.0 W/m2 CLR
22:26 -9 °C -15.9 °C 34418.7 hPa Calm     43 % 0 mm 0.0 W/m2 CLR
22:31 -9.1 °C -15.9 °C 34418.7 hPa Calm     44 % 0 mm 0.0 W/m2 CLR
22:36 -9.3 °C -16.1 °C 34418.7 hPa Calm     44 % 0 mm 0.0 W/m2 CLR
22:41 -9.5 °C -16.1 °C 34418.7 hPa Calm     45 % 0 mm 0.0 W/m2 CLR
22:46 -9.6 °C -16 °C 34418.7 hPa Calm     46 % 0 mm 0.0 W/m2 CLR
22:51 -9.8 °C -16.2 °C 34428.8 hPa Calm     46 % 0 mm 0.0 W/m2 CLR
22:56 -9.9 °C -16.1 °C 34428.8 hPa Calm     47 % 0 mm 0.0 W/m2 CLR
23:01 -10.1 °C -16.1 °C 34428.8 hPa Calm     48 % 0 mm 0.0 W/m2 CLR
23:06 -10.2 °C -16.1 °C 34428.8 hPa Calm     49 % 0 mm 0.0 W/m2 CLR
23:11 -10.3 °C -16 °C 34428.8 hPa Calm     50 % 0 mm 0.0 W/m2 CLR
23:16 -10.6 °C -16.1 °C 34428.8 hPa Calm     51 % 0 mm 0.0 W/m2 CLR
23:21 -10.7 °C -16.1 °C 34428.8 hPa Calm     52 % 0 mm 0.0 W/m2 CLR
23:26 -10.9 °C -16.1 °C 34428.8 hPa Calm     53 % 0 mm 0.0 W/m2 CLR
23:31 -11 °C -16.2 °C 34428.8 hPa Calm     53 % 0 mm 0.0 W/m2 CLR
23:36 -11.2 °C -16.2 °C 34428.8 hPa Calm     54 % 0 mm 0.0 W/m2 CLR
23:41 -11.3 °C -16.3 °C 34428.8 hPa Calm     54 % 0 mm 0.0 W/m2 CLR
23:46 -11.4 °C -16.3 °C 34428.8 hPa Calm     55 % 0 mm 0.0 W/m2 CLR
23:51 -11.6 °C -16.2 °C 34442.4 hPa Calm     56 % 0 mm 0.0 W/m2 CLR
23:56 -11.7 °C -16.3 °C 34442.4 hPa Calm     56 % 0 mm 0.0 W/m2 CLR
Lo Temps de Massalio
Compliments of Weather Underground - 1.25 mb